[Iaude] MPEC L25: 2024 LD [a=2.13,e=0.53,i=9.7,H=26.0]
    mpec at cfa.harvard.edu 
    mpec at cfa.harvard.edu
       
    Sun Jun  2 15:36:42 EDT 2024
    
    
  
M.P.E.C. 2024-L25                                  Issued 2024 June 2, 19:35 UT
     The Minor Planet Electronic Circulars contain information on unusual
         minor planets, routine data on comets and natural satellites,
         and occasional editorial announcements.  They are published
    on behalf of Division F of the International Astronomical Union by the
          Minor Planet Center, Smithsonian Astrophysical Observatory,
                          Cambridge, MA 02138, U.S.A.
			  
             Prepared using the Tamkin Foundation Computer Network
                              MPC at CFA.HARVARD.EDU
            URL https://www.minorplanetcenter.net/    ISSN 1523-6714
                                    2024 LD                                     
Observations:
     K24L00D  C2024 05 28.44644316 09 58.727-00 43 05.36         21.70GVEL025F51
     K24L00D  C2024 05 28.46947816 10 01.857-00 44 25.53         21.60GVEL025F51
     K24L00D 1C2024 05 31.34240 16 20 10.79 -04 13 31.0          21.1 GVEL025G96
     K24L00D 1C2024 05 31.34759 16 20 12.05 -04 13 59.6          20.6 GVEL025G96
     K24L00D* C2024 06 01.49322816 25 39.400-06 07 13.33         21.24wXEL025F51
     K24L00D  C2024 06 01.50479216 25 42.519-06 08 28.37         21.35wXEL025F51
     K24L00D  C2024 06 01.51644116 25 45.701-06 09 44.01         21.05wXEL025F51
     K24L00D  C2024 06 01.58477316 26 05.074-06 17 10.42         21.76GVEL025F51
     K24L00D  C2024 06 01.58541716 26 05.231-06 17 15.37         21.51GVEL025F51
     K24L00D KB2024 06 02.01304116 28 33.34 -07 07 05.7          20.6 GXEL025I93
     K24L00D KB2024 06 02.02412416 28 36.73 -07 08 25.1          20.4 GXEL025I93
     K24L00D KB2024 06 02.03484716 28 40.07 -07 09 42.5          21.0 GXEL025I93
     K24L00D !C2024 06 02.31465 16 30 21.35 -07 43 40.6          20.5 GVEL025673
     K24L00D !C2024 06 02.31725 16 30 22.17 -07 44 00.1                VEL025673
     K24L00D KC2024 06 02.32317416 30 23.108-07 44 41.35         21.07GVEL025I52
     K24L00D KC2024 06 02.32445516 30 23.512-07 44 50.53         21.11GVEL025I52
     K24L00D  C2024 06 02.33743916 30 27.223-07 46 30.69         20.8 GVEL025H01
     K24L00D  C2024 06 02.34124316 30 28.457-07 46 59.35         20.9 GVEL025H01
     K24L00D  C2024 06 02.35148216 30 31.748-07 48 16.43         20.5 GVEL025H01
     K24L00D  C2024 06 02.36123416 30 34.909-07 49 29.87         20.4 GVEL025H01
Observer details:
673 Table Mountain Observatory, Wrightwood.  Observer J. Pittichova.  1.0-m
    f/15 reflector + CCD.
F51 Pan-STARRS 1, Haleakala.  Observers J. Herman, T. Lowe, P. Minguez, A.
    Schultz, I. Smith.  Measurers K. Chambers, T. de Boer, J. Fairlamb, H.
    Gao, M. Huber, C.-C. Lin, E. Magnier, Y. Ramanjooloo, R. Wainscoat, R.
    Weryk.  1.8-m Ritchey-Chretien + CCD.
G96 Mt. Lemmon Survey.  Observer T. Beuden.  Measurers B. Gray, D. Rankin, F.
    C. Shelly.  1.5-m reflector + 10K CCD.
H01 Magdalena Ridge Observatory, Socorro.  Observers W. H. Ryan, E. V. Ryan.
    Measurer W. H. Ryan.  2.4-m f/8.9 Ritchey-Chretien + CCD.
I52 Steward Observatory, Mt. Lemmon Station.  Observer K. W. Wierzchos.
    Measurers T. Beuden, V. F. Carvajal, D. Fay, J. B. Fazekas, D. C. Fuls, A.
    R. Gibbs, A. D. Grauer, H. Groeller, J. K. Hogan, R. A. Kowalski, S. M.
    Larson, G. J. Leonard, D. Rankin, R. L. Seaman, F. C. Shelly, K. W.
    Wierzchos.  1.0-m prime focus + CCD.
I93 St Pardon de Conques.  Observer F. Losse.  0.40-m f/3.7 reflector + CMO.
Orbital elements:
2024 LD                                                  Earth MOID = 0.0267 AU
Epoch 2024 Mar. 31.0 TT = JDT 2460400.5                 Veres                   
M 329.10384              (2000.0)            P               Q                  
n   0.31795872     Peri.  214.54786     +0.35247321     +0.92140420             
a   2.1259623      Node    76.57292     -0.81617626     +0.38822101             
e   0.5335837      Incl.    9.68522     -0.45784162     +0.01728440             
P   3.10           H   26.04          G   0.15           U   8                  
Residuals in seconds of arc
240528 F51  0.1-  0.1-    240601 F51  0.2+  0.3+    240602 I52  0.1-  0.3-
240528 F51  0.1-  0.1-    240601 F51  0.3-  0.4-    240602 I52  0.1-  0.1+
240531 G96 (1.2-  0.9+)   240602 I93  0.2+  0.1+    240602 H01  0.1-  0.1+
240531 G96  0.4+  0.3+    240602 I93  0.1+  0.2-    240602 H01  0.1+  0.1+
240601 F51  0.2+  0.1-    240602 I93  0.8+  1.0-    240602 H01  0.0   0.1+
240601 F51  0.0   0.0     240602 673  0.3+  0.1-    240602 H01  0.1+  0.1+
240601 F51  0.1-  0.2+    240602 673  0.2+  0.0
Ephemeris:
2024 LD                  a,e,i = 2.13, 0.53, 10                  q = 0.9916
Date    TT    R. A. (2000) Decl.     Delta      r    Elong.  Phase     V
2024 05 03    15 42 29.4 +05 38 09   0.2723  1.2582   153.8    20.7    24.7
...
2024 05 18    15 52 32.0 +04 38 38   0.1618  1.1608   155.6    21.1    23.4
...
2024 05 26    16 03 58.9 +01 17 13   0.1092  1.1147   157.5    20.3    22.5
...
2024 06 01    16 23 13.4 -05 14 45   0.07268 1.0837   162.9    16.0    21.4
2024 06 02    16 28 29.4 -07 03 45   0.06695 1.0789   164.6    14.4    21.1
2024 06 03    16 34 47.3 -09 13 15   0.06138 1.0742   166.7    12.5    20.9
...
2024 06 09    18 06 01.5 -34 51 25   0.03451 1.0482   162.8    16.6    19.7
...
2024 06 17    01 00 29.3 -46 07 00   0.04597 1.0203    94.2    83.2    22.3
...
2024 07 02    02 47 33.1 -26 15 18   0.1273  0.9928    75.6    97.2    25.0
M. P. C. Staff               (C) Copyright 2024 MPC           M.P.E.C. 2024-L25
    
    
More information about the Iaude
mailing list